Location: Coll
(42.4728°N, 0.7714°E)
Time: 06:34:35
(UTC+00:00)

SL-19 R/B - Pass Details

Date: 23 October 2020
Orbit: 358 x 808 km, 99.4° (Epoch: 23 November)

Event Time Altitude Azimuth Distance (km) Brightness Sun altitude
Rises 04:54:41 0° 14° (NNE) 2,240 7.6 -16.3°
Reaches altitude 10° 04:56:39 10° 13° (NNE) 1,361 6.5 -16.0°
Maximum altitude 04:59:30 83° 288° (WNW) 367 3.3 -15.4°
Drops below altitude 10° 05:02:18 10° 198° (SSW) 1,342 6.1 -14.9°
Sets 05:04:13 0° 198° (SSW) 2,203 7.3 -14.6°
